MRPV

Tobías Bolaños International Airport

Airport
ICAO code
MRPV
IATA Code
SYQ
Summary
ICAO Region
CARSAM
ICAO Territory
Location

San José, Alajuela Province

Serving
San José
Elevation
3287 ft
Coordinates
9° 57' 27" N , 84° 8' 25" W
KCC
Metar
MRPV 191600Z 29007KT 9999 SCT035 SCT120 24/20 A3011 NOSIG

Tobías Bolaños International Airport is an international airport in Costa Rica and the secondary airport serving the city capital of San José after Juan Santamaría International Airport.

Climatology

Tropical savannah climate (Köppen climate classification Aw)

Runways

Designator Length Width Surface Rops
9/27 1600 18 ASP No/No

Airport map

Aerial View

SKYbrary Partners:

Safety knowledge contributed by: